Time,TemperatureF,DewpointF,PressureIn,WindDirection,WindDirectionDegrees,WindSpeedMPH,WindSpeedGustMPH,Humidity,HourlyPrecipIn,Conditions,Clouds,dailyrainin,SoftwareType,DateUTC
2013-11-08 00:23:00,39.0,37.0,30.33,NNW,327,0.0,0.0,91,0.00,,,0.00,,2013-11-08 05:23:00,
2013-11-08 00:43:00,39.0,37.0,30.32,NNW,327,0.0,0.0,92,0.00,,,0.00,,2013-11-08 05:43:00,
2013-11-08 00:54:00,39.0,37.0,30.32,NNW,327,0.0,0.0,92,0.00,,,0.00,,2013-11-08 05:54:00,
2013-11-08 01:23:00,39.0,37.0,30.31,NNW,327,0.0,0.0,92,0.00,,,0.00,,2013-11-08 06:23:00,
2013-11-08 01:42:00,38.0,36.0,30.32,NNW,327,0.0,0.0,92,0.00,,,0.00,,2013-11-08 06:42:00,
2013-11-08 01:52:00,38.0,36.0,30.32,NNW,327,0.0,0.0,93,0.00,,,0.00,,2013-11-08 06:52:00,
2013-11-08 02:12:00,38.0,36.0,30.31,NNW,327,0.0,0.0,93,0.00,,,0.00,,2013-11-08 07:12:00,
2013-11-08 02:21:00,38.0,36.0,30.32,NNW,327,0.0,0.0,93,0.00,,,0.00,,2013-11-08 07:21:00,
2013-11-08 02:42:00,37.0,35.0,30.32,NNW,327,0.0,0.0,93,0.00,,,0.00,,2013-11-08 07:42:00,
2013-11-08 02:52:00,37.0,35.0,30.32,NNW,327,0.0,0.0,93,0.00,,,0.00,,2013-11-08 07:52:00,
2013-11-08 03:22:00,37.0,35.0,30.31,NNW,327,0.0,0.0,93,0.00,,,0.00,,2013-11-08 08:22:00,
2013-11-08 03:42:00,37.0,35.0,30.31,NNW,327,0.0,0.0,93,0.00,,,0.00,,2013-11-08 08:42:00,
2013-11-08 03:52:00,36.0,34.0,30.31,NNW,327,0.0,0.0,93,0.00,,,0.00,,2013-11-08 08:52:00,
2013-11-08 04:22:00,36.0,34.0,30.32,NNW,327,0.0,0.0,93,0.00,,,0.00,,2013-11-08 09:22:00,
2013-11-08 04:43:00,36.0,34.0,30.32,NNW,327,0.0,0.0,94,0.00,,,0.00,,2013-11-08 09:43:00,
2013-11-08 04:54:00,36.0,34.0,30.32,NNW,327,0.0,0.0,94,0.00,,,0.00,,2013-11-08 09:54:00,
2013-11-08 05:12:00,36.0,34.0,30.32,NNW,327,0.0,0.0,94,0.00,,,0.00,,2013-11-08 10:12:00,
2013-11-08 05:23:00,35.0,33.0,30.32,NNW,327,0.0,0.0,94,0.00,,,0.00,,2013-11-08 10:23:00,
2013-11-08 05:42:00,35.0,33.0,30.32,NNW,327,0.0,0.0,94,0.00,,,0.00,,2013-11-08 10:42:00,
2013-11-08 05:53:00,35.0,33.0,30.33,NNW,327,0.0,0.0,94,0.00,,,0.00,,2013-11-08 10:53:00,
2013-11-08 06:22:00,34.0,32.0,30.33,NNW,327,0.0,0.0,94,0.00,,,0.00,,2013-11-08 11:22:00,
2013-11-08 06:52:00,34.0,32.0,30.33,NNW,327,0.0,0.0,94,0.00,,,0.00,,2013-11-08 11:52:00,
2013-11-08 07:11:00,34.0,32.0,30.33,NNW,327,0.0,0.0,94,0.00,,,0.00,,2013-11-08 12:11:00,
2013-11-08 07:21:00,34.0,32.0,30.34,NNW,327,0.0,0.0,94,0.00,,,0.00,,2013-11-08 12:21:00,
2013-11-08 07:42:00,34.0,32.0,30.35,NNW,327,0.0,0.0,94,0.00,,,0.00,,2013-11-08 12:42:00,
2013-11-08 07:52:00,34.0,32.0,30.35,NNW,327,0.0,0.0,94,0.00,,,0.00,,2013-11-08 12:52:00,
2013-11-08 08:11:00,34.0,32.0,30.35,NNW,327,0.0,0.0,94,0.00,,,0.00,,2013-11-08 13:11:00,
2013-11-08 08:21:00,34.0,33.0,30.36,NNW,327,0.0,0.0,95,0.00,,,0.00,,2013-11-08 13:21:00,
2013-11-08 08:52:00,38.0,37.0,30.36,East,100,0.0,0.0,96,0.00,,,0.00,,2013-11-08 13:52:00,
2013-11-08 09:11:00,39.0,38.0,30.37,East,100,0.0,0.0,96,0.00,,,0.00,,2013-11-08 14:11:00,
2013-11-08 09:21:00,42.0,41.0,30.37,East,100,0.0,0.0,96,0.00,,,0.00,,2013-11-08 14:21:00,
2013-11-08 09:42:00,43.0,41.0,30.37,East,100,0.0,0.0,94,0.00,,,0.00,,2013-11-08 14:42:00,
2013-11-08 09:52:00,46.0,43.0,30.36,East,100,0.0,0.0,90,0.00,,,0.00,,2013-11-08 14:52:00,
2013-11-08 10:53:00,53.0,43.0,30.36,SSW,196,0.0,0.0,69,0.00,,,0.00,,2013-11-08 15:53:00,
2013-11-08 11:13:00,54.0,43.0,30.36,ENE,64,0.0,0.0,67,0.00,,,0.00,,2013-11-08 16:13:00,
2013-11-08 11:23:00,55.0,43.0,30.36,SE,133,0.0,0.0,65,0.00,,,0.00,,2013-11-08 16:23:00,
2013-11-08 11:53:00,56.0,43.0,30.35,SE,144,0.0,0.0,62,0.00,,,0.00,,2013-11-08 16:53:00,
2013-11-08 12:22:00,58.0,41.0,30.34,SE,129,1.0,2.0,53,0.00,,,0.00,,2013-11-08 17:22:00,
2013-11-08 12:43:00,59.0,40.0,30.33,ENE,76,0.0,0.0,49,0.00,,,0.00,,2013-11-08 17:43:00,
2013-11-08 12:53:00,60.0,37.0,30.32,South,170,0.0,0.0,43,0.00,,,0.00,,2013-11-08 17:53:00,
2013-11-08 13:22:00,61.0,36.0,30.31,ESE,122,0.0,0.0,40,0.00,,,0.00,,2013-11-08 18:22:00,
2013-11-08 13:43:00,61.0,36.0,30.30,SE,127,0.0,1.0,40,0.00,,,0.00,,2013-11-08 18:43:00,
2013-11-08 13:52:00,62.0,36.0,30.29,ESE,121,0.0,0.0,38,0.00,,,0.00,,2013-11-08 18:52:00,
2013-11-08 14:22:00,64.0,36.0,30.27,ESE,119,0.0,0.0,35,0.00,,,0.00,,2013-11-08 19:22:00,
2013-11-08 14:42:00,64.0,36.0,30.27,East,99,0.0,1.0,35,0.00,,,0.00,,2013-11-08 19:42:00,
2013-11-08 14:52:00,64.0,34.0,30.27,SSE,147,0.0,0.0,33,0.00,,,0.00,,2013-11-08 19:52:00,
2013-11-08 15:12:00,64.0,34.0,30.25,SE,143,0.0,1.0,33,0.00,,,0.00,,2013-11-08 20:12:00,
2013-11-08 15:22:00,64.0,36.0,30.25,SSW,213,0.0,3.0,35,0.00,,,0.00,,2013-11-08 20:22:00,
2013-11-08 15:42:00,64.0,36.0,30.25,West,265,0.0,2.0,35,0.00,,,0.00,,2013-11-08 20:42:00,
2013-11-08 15:52:00,64.0,34.0,30.24,East,101,0.0,1.0,32,0.00,,,0.00,,2013-11-08 20:52:00,
2013-11-08 16:22:00,65.0,34.0,30.24,SSW,207,0.0,0.0,32,0.00,,,0.00,,2013-11-08 21:22:00,
2013-11-08 16:44:00,65.0,35.0,30.23,SE,132,0.0,0.0,33,0.00,,,0.00,,2013-11-08 21:44:00,
2013-11-08 16:54:00,64.0,35.0,30.23,SE,140,0.0,0.0,34,0.00,,,0.00,,2013-11-08 21:54:00,
2013-11-08 17:13:00,64.0,35.0,30.22,ESE,123,0.0,0.0,34,0.00,,,0.00,,2013-11-08 22:13:00,
2013-11-08 17:23:00,63.0,34.0,30.22,SSE,166,0.0,0.0,34,0.00,,,0.00,,2013-11-08 22:23:00,
2013-11-08 17:43:00,62.0,36.0,30.22,SE,144,0.0,0.0,38,0.00,,,0.00,,2013-11-08 22:43:00,
2013-11-08 17:53:00,61.0,42.0,30.22,SE,136,0.0,0.0,49,0.00,,,0.00,,2013-11-08 22:53:00,
2013-11-08 18:12:00,59.0,41.0,30.21,SE,136,0.0,0.0,52,0.00,,,0.00,,2013-11-08 23:12:00,
2013-11-08 18:22:00,57.0,41.0,30.21,SE,136,0.0,0.0,56,0.00,,,0.00,,2013-11-08 23:22:00,
2013-11-08 18:53:00,54.0,43.0,30.21,SE,136,0.0,0.0,65,0.00,,,0.00,,2013-11-08 23:53:00,
2013-11-08 19:12:00,53.0,42.0,30.22,SE,136,0.0,0.0,67,0.00,,,0.00,,2013-11-09 00:12:00,
2013-11-08 19:22:00,52.0,42.0,30.21,SE,136,0.0,0.0,69,0.00,,,0.00,,2013-11-09 00:22:00,
2013-11-08 19:52:00,50.0,42.0,30.21,SE,136,0.0,0.0,75,0.00,,,0.00,,2013-11-09 00:52:00,
2013-11-08 20:11:00,49.0,42.0,30.20,SE,136,0.0,0.0,76,0.00,,,0.00,,2013-11-09 01:11:00,
2013-11-08 20:22:00,49.0,42.0,30.20,SE,137,0.0,0.0,77,0.00,,,0.00,,2013-11-09 01:22:00,
2013-11-08 20:42:00,49.0,42.0,30.20,SE,138,0.0,0.0,76,0.00,,,0.00,,2013-11-09 01:42:00,
2013-11-08 20:52:00,49.0,42.0,30.21,SE,138,0.0,0.0,77,0.00,,,0.00,,2013-11-09 01:52:00,
2013-11-08 21:22:00,47.0,41.0,30.21,SE,138,0.0,0.0,80,0.00,,,0.00,,2013-11-09 02:22:00,
2013-11-08 21:42:00,47.0,41.0,30.20,SE,140,0.0,0.0,80,0.00,,,0.00,,2013-11-09 02:42:00,
2013-11-08 21:52:00,47.0,41.0,30.20,SE,140,0.0,0.0,78,0.00,,,0.00,,2013-11-09 02:52:00,
2013-11-08 22:22:00,46.0,41.0,30.19,SE,140,0.0,0.0,81,0.00,,,0.00,,2013-11-09 03:22:00,
2013-11-08 22:54:00,46.0,41.0,30.19,SSE,151,0.0,0.0,81,0.00,,,0.00,,2013-11-09 03:54:00,
2013-11-08 23:23:00,49.0,39.0,30.19,South,178,0.0,0.0,69,0.00,,,0.00,,2013-11-09 04:23:00,
2013-11-08 23:42:00,49.0,40.0,30.19,South,177,0.0,0.0,71,0.00,,,0.00,,2013-11-09 04:42:00,
2013-11-08 23:53:00,49.0,40.0,30.19,South,171,0.0,0.0,72,0.00,,,0.00,,2013-11-09 04:53:00,